"Pseudo-MPEC" for P10QA7J

Created 2019 Aug 15 12:07:05 UT using Find_Orb

Click here for an explanation of pseudo-MPECs

 
 Astrometry: 
     P10QA7J  C2019 08 107C[\^F;/IWiceQ?KL,Mt7(iC`AstrometryRredacted;8sR!dO7F51
     P10QA7J  C2019 08 103=G)'J`p3%GR*s^XGP:jsTCe'uglK$F8umA[rQ:sclick^EFvWGLF51
     P10QA7J  C2019 08 10K8[e-0,S50N`mIb1_5=y.!x/Q/V$[HXa)CHnP):1TI[=5@RRs:-LF51
     P10QA7J  C2019 08 10#^[Z\tWfr4(=p^OKadhv^tN1h5]lN?j5b?m(kMG/4=m=h.[0+?^3F51
     P10QA7J KC2019 08 11PMIhsw-yAv;:CD_p:,%($LEF[ZWfyoS*BroSYnO/dCSb]IC)_G/^H21
     P10QA7J KC2019 08 11nj?%0tdq@tfN-5W=yTherepa7s=[V(f;PVZUARP_UGY)3-k.!sXdH21
     P10QA7J KC2019 08 11+4Ebj(N+X^e4YMexVR_GUX/0QA';M;;5_C=kU!0i[N-SUL+2%E34H21
     P10QA7J ^C2019 08 11.57436501 04 38.164+09 14 53.35   ~8BKM 20.84GVNEOCP568
     P10QA7J ^C2019 08 11.57554901 04 38.268+09 14 57.16   ~8BKM 20.92GVNEOCP568
     P10QA7J ^C2019 08 11.57674101 04 38.375+09 15 01.00   ~8BKM 20.86GVNEOCP568
     P10QA7J ^C2019 08 11.57792801 04 38.480+09 15 04.84   ~8BKM 20.87GVNEOCP568
     P10QA7J pC2019 08 15#wx.%#ktforZZ;w%Ky5:4As(M_arMuOJN]h-:4(3n(luSE0n3(JTL01
     P10QA7J pC2019 08 15VR'o:SBi\l=s5K4I-G=#Ocx)bbQukUP!-1p!?mE!9uNg/QN0IQ_2L01
     P10QA7J pC2019 08 15)BulMp7(8jfbE+Uj,explanationo-[CNjO#Tx.nd86_^0ud3jPuL01

Station data:
(568) Mauna Kea  (N19.826116 W155.472200)  US/Hawaii.
(F51) Pan-STARRS 1, Haleakala  (N20.707235 W156.255910)  US/Hawaii.
   Observers N. Primak, A. Schultz, S. Watters, J. Thiel, T. Goggia. Measurer
   PS1 Science Consortium. 1.8-m Ritchey-Chrétien + CCD.
(H21) Astronomical Research Observatory, Westfield  (N39.483057 W87.968270)
   US/Illinois. 0.76-m f/3.0 astrograph + CCD.
(L01) Višnjan Observatory, Tičan  (N45.290900 E13.749300)  Croatia.
   Observers K. Korlević, E. Pettarin. Measurer E. Pettarin. 1.0-m f/2.9
   reflector + CCD.

Orbital elements:  P10QA7J
   Perihelion 2019 Aug 27.998238 +/- 0.183 TT = 23:57:27 (JD 2458723.498238)
Epoch 2019 Aug 15.0 TT = JDT 2458710.5   Earth MOID: 0.2848   Ma: 0.0559
M 357.12414370 +/- 0.18             (J2000 ecliptic)          AutoNEOCP
n   0.22124970 +/- 0.0123           Peri.   16.34626 +/- 0.15
a   2.70736981 +/- 0.1              Node   333.22459 +/- 0.20
e   0.5252751 +/- 0.0158            Incl.   16.27624 +/- 0.20
P   4.45                   H 21.4   G  0.15   U  9.8  
q 1.28525564 +/- 0.00491    Q 4.12948399 +/- 0.204
From 14 observations 2019 Aug. 10-15; mean residual 0".39
Residuals in arcseconds: 
190810 F51  .04-  .18+    190811 H21  .04-  .32+    190811 568  .05+  .17-    
190810 F51  .02-  .14-    190811 H21  .05+  .09+    190815 L01  1.4+  .22+    
190810 F51  .09-  .15-    190811 568  .07+  .15-    190815 L01  .10-  .41-    
190810 F51  .07+  .01+    190811 568  .05+  .17-    190815 L01  1.3-  .21+    
190811 H21  .11-  .26+    190811 568  .06+  .18-    

Ephemerides (geocentric):
Date (UTC) HH   RA              Dec         delta   r     elong  mag " sig PA
---- -- -- --  -------------   -----------  ------ ------ -----  --- ---- ---
2019 08 15 12  01 10 44.559   +12 49 05.90  .43726 1.2926 120.8 21.8 .395 143
2019 08 15 13  01 10 48.303   +12 51 23.93  .43714 1.2925 120.8 21.8 .414 142
2019 08 15 14  01 10 52.043   +12 53 41.98  .43701 1.2925 120.8 21.8 .434 141
2019 08 15 15  01 10 55.780   +12 56 00.07  .43689 1.2924 120.8 21.8 .455 140
2019 08 15 16  01 10 59.514   +12 58 18.19  .43677 1.2924 120.8 21.8 .475 140
2019 08 15 17  01 11 03.245   +13 00 36.33  .43665 1.2923 120.9 21.8 .497 139
2019 08 15 18  01 11 06.972   +13 02 54.50  .43653 1.2923 120.9 21.8 .518 138
2019 08 15 19  01 11 10.696   +13 05 12.71  .43640 1.2922 120.9 21.8 .540 138
2019 08 15 20  01 11 14.417   +13 07 30.94  .43628 1.2922 120.9 21.8 .562 137
2019 08 15 21  01 11 18.135   +13 09 49.20  .43616 1.2921 120.9 21.8 .585 137
2019 08 15 22  01 11 21.849   +13 12 07.49  .43604 1.2921 120.9 21.8 .608 136
2019 08 15 23  01 11 25.561   +13 14 25.80  .43592 1.2920 120.9 21.8 .632 136
2019 08 16 00  01 11 29.269   +13 16 44.15  .43580 1.2920 120.9 21.8 .656 136
2019 08 16 01  01 11 32.974   +13 19 02.52  .43568 1.2920 120.9 21.8 .680 135
2019 08 16 02  01 11 36.675   +13 21 20.92  .43556 1.2919 120.9 21.8 .704 135
2019 08 16 03  01 11 40.373   +13 23 39.35  .43544 1.2919 121.0 21.8 .729 134
2019 08 16 04  01 11 44.068   +13 25 57.80  .43532 1.2918 121.0 21.8 .755 134
2019 08 16 05  01 11 47.760   +13 28 16.29  .43520 1.2918 121.0 21.8 .781 134
2019 08 16 06  01 11 51.449   +13 30 34.80  .43509 1.2917 121.0 21.8 .807 134
2019 08 16 07  01 11 55.134   +13 32 53.33  .43497 1.2917 121.0 21.8 .833 133
2019 08 16 08  01 11 58.816   +13 35 11.90  .43485 1.2916 121.0 21.8 .860 133
2019 08 16 09  01 12 02.495   +13 37 30.49  .43473 1.2916 121.0 21.8 .887 133
2019 08 16 10  01 12 06.170   +13 39 49.10  .43461 1.2915 121.0 21.8 .915 133
2019 08 16 11  01 12 09.842   +13 42 07.75  .43450 1.2915 121.0 21.8 .943 132
2019 08 16 12  01 12 13.511   +13 44 26.41  .43438 1.2915 121.0 21.8 .971 132
2019 08 16 13  01 12 17.177   +13 46 45.11  .43426 1.2914 121.1 21.8 1.00 132
2019 08 16 14  01 12 20.839   +13 49 03.83  .43415 1.2914 121.1 21.8 1.03 132
2019 08 16 15  01 12 24.498   +13 51 22.58  .43403 1.2913 121.1 21.8 1.06 132
2019 08 16 16  01 12 28.154   +13 53 41.35  .43391 1.2913 121.1 21.8 1.09 131
2019 08 16 17  01 12 31.806   +13 56 00.14  .43380 1.2912 121.1 21.8 1.12 131
2019 08 16 18  01 12 35.455   +13 58 18.97  .43368 1.2912 121.1 21.8 1.15 131
2019 08 16 19  01 12 39.101   +14 00 37.81  .43357 1.2911 121.1 21.8 1.18 131
2019 08 16 20  01 12 42.743   +14 02 56.68  .43345 1.2911 121.1 21.8 1.21 131
2019 08 16 21  01 12 46.382   +14 05 15.58  .43334 1.2911 121.1 21.8 1.24 131
2019 08 16 22  01 12 50.018   +14 07 34.50  .43322 1.2910 121.1 21.8 1.27 130
2019 08 16 23  01 12 53.650   +14 09 53.45  .43311 1.2910 121.1 21.8 1.31 130
2019 08 17 00  01 12 57.279   +14 12 12.41  .43300 1.2909 121.2 21.8 1.34 130
2019 08 17 01  01 13 00.905   +14 14 31.41  .43288 1.2909 121.2 21.8 1.37 130
2019 08 17 02  01 13 04.527   +14 16 50.42  .43277 1.2908 121.2 21.8 1.41 130
2019 08 17 03  01 13 08.146   +14 19 09.46  .43265 1.2908 121.2 21.8 1.44 130
2019 08 17 04  01 13 11.762   +14 21 28.53  .43254 1.2908 121.2 21.8 1.47 130
2019 08 17 05  01 13 15.374   +14 23 47.61  .43243 1.2907 121.2 21.8 1.51 130
2019 08 17 06  01 13 18.983   +14 26 06.72  .43232 1.2907 121.2 21.8 1.54 130
2019 08 17 07  01 13 22.589   +14 28 25.86  .43220 1.2906 121.2 21.8 1.58 130
2019 08 17 08  01 13 26.191   +14 30 45.01  .43209 1.2906 121.2 21.8 1.61 129
2019 08 17 09  01 13 29.790   +14 33 04.19  .43198 1.2905 121.2 21.8 1.65 129
2019 08 17 10  01 13 33.386   +14 35 23.39  .43187 1.2905 121.3 21.8 1.69 129
2019 08 17 11  01 13 36.978   +14 37 42.61  .43176 1.2905 121.3 21.8 1.72 129